This demonstration page uses our WeatherBlox Daily Observations layout. Learn more.

39.01783, -85.05884

Hourly Observations for February 16, 2020

Temp ( °F °C ) Dew Point ( °F °C ) Humidity (%) Winds ( mph kmh ) Pressure ( in mb ) Visibility ( mi km ) Precip ( " mm )
12:52 am 00:52 Cloudy 38 3.3 22 -5.6 52 52 S 7 11 30.16 1021 10 16.0934 0 0
1:52 am 01:52 Cloudy 38 3.3 22 -5.6 52 52 S 5 7 30.15 1021 10 16.0934 0 0
2:52 am 02:52 Cloudy 36 2.2 23 -5 59 59 Calm 30.14 1021 10 16.0934 0 0
3:52 am 03:52 Cloudy 37 2.8 23 -5 57 57 Calm 30.13 1020 10 16.0934 0 0
4:52 am 04:52 Cloudy 37 2.8 22 -5.6 54 54 Calm 30.12 1020 10 16.0934 0 0
5:52 am 05:52 Cloudy 34 1.1 26 -3.3 73 73 S 7 11 30.12 1020 10 16.0934 0 0
6:52 am 06:52 Cloudy 37 2.8 23 -5 57 57 Calm 30.12 1020 10 16.0934 0 0
7:52 am 07:52 Cloudy 36 2.2 25 -3.9 64 64 S 5 7 30.12 1020 10 16.0934 0 0
8:52 am 08:52 Cloudy 39 3.9 27 -2.8 62 62 Calm 30.13 1020 10 16.0934 0 0
9:52 am 09:52 Cloudy 43 6.1 26 -3.3 51 51 SSW 6 9 30.12 1020 10 16.0934 0 0
10:52 am 10:52 Cloudy 45 7.2 27 -2.8 49 49 WSW 5 7 30.1 1019 10 16.0934 0 0
11:52 am 11:52 Cloudy 45 7.2 27 -2.8 49 49 WSW 3 6 30.1 1019 10 16.0934 0 0
12:52 pm 12:52 Cloudy 45 7.2 26 -3.3 48 48 NW 6 9 30.1 1019 10 16.0934 0 0
1:52 pm 13:52 Cloudy 45 7.2 26 -3.3 48 48 WNW 3 6 30.08 1019 10 16.0934 0 0
2:52 pm 14:52 Cloudy 47 8.3 26 -3.3 44 44 NW 6 9 30.07 1018 10 16.0934 0 0
3:52 pm 15:52 Mostly Cloudy 49 9.4 27 -2.8 43 43 Calm 30.08 1019 10 16.0934 0 0
4:52 pm 16:52 Partly Cloudy 49 9.4 27 -2.8 43 43 N 3 6 30.08 1019 10 16.0934 0 0
5:52 pm 17:52 Partly Cloudy 46 7.8 27 -2.8 47 47 Calm 30.1 1019 10 16.0934 0 0
6:52 pm 18:52 Mostly Cloudy 42 5.6 28 -2.2 58 58 Calm 30.11 1020 10 16.0934 0 0
7:52 pm 19:52 Mostly Cloudy 40 4.4 29 -1.7 65 65 N 7 11 30.12 1020 10 16.0934 0 0
8:52 pm 20:52 Mostly Cloudy 39 3.9 28 -2.2 65 65 NE 6 9 30.12 1020 10 16.0934 0 0
9:52 pm 21:52 Mostly Cloudy 37 2.8 27 -2.8 67 67 NE 7 11 30.15 1021 10 16.0934 0 0
10:52 pm 22:52 Mostly Clear 36 2.2 26 -3.3 67 67 NE 6 9 30.14 1021 10 16.0934 0 0
11:52 pm 23:52 Clear 35 1.7 26 -3.3 70 70 ENE 5 7 30.11 1020 10 16.0934 0 0

Powered by AerisWeather